GW3206 Weather Reports


time (UTC)temp
C
wind
direction
speed
KPH
gust
KPH
rain 1hr
cm
rain 24hr
cm
rain mn
cm
humidity
%
barometer
mb
20260505002153 11 43 0.0 0.0 0.00 0.05 0.05 63 1015.9
20260505001649 11 34 0.0 0.0 0.00 0.05 0.05 64 1015.9
20260505001147 11 28 0.0 0.0 0.00 0.05 0.05 63 1016.0
20260505000644 11 325 0.0 1.6 0.00 0.05 0.05 61 1015.8
20260505000142 11 49 0.0 0.0 0.00 0.05 0.05 66 1015.9
20260504235638 11 56 0.0 0.0 0.00 0.05 0.05 67 1015.9
20260504235135 11 56 0.0 0.0 0.00 0.05 0.05 68 1015.8
20260504234632 10 56 0.0 0.0 0.00 0.05 0.05 69 1015.8
20260504234129 10 55 0.0 0.0 0.00 0.05 0.05 75 1015.5
20260504233625 10 68 0.0 0.0 0.00 0.05 0.05 79 1015.8
20260504233121 10 69 0.0 0.0 0.00 0.05 0.05 75 1015.8
20260504232619 10 117 0.0 1.6 0.00 0.05 0.05 76 1016.0
20260504232116 10 89 0.0 0.0 0.00 0.05 0.05 76 1015.9
20260504231612 10 89 0.0 1.6 0.00 0.05 0.05 77 1016.0
20260504231108 10 354 0.0 0.0 0.00 0.05 0.05 80 1015.8
20260504230604 10 68 0.0 0.0 0.00 0.05 0.05 84 1015.5
20260504230104 9 59 0.0 1.6 0.00 0.05 0.05 87 1015.2
20260504225600 9 292 1.6 1.6 0.00 0.05 0.05 87 1015.5
20260504225057 9 33 1.6 3.2 0.00 0.05 0.05 90 1015.8
20260504224554 10 43 0.0 0.0 0.00 0.05 0.05 90 1015.9
20260504224051 9 245 0.0 1.6 0.00 0.05 0.05 89 1015.9
20260504223548 8 315 0.0 3.2 0.00 0.05 0.05 89 1016.0
20260504223043 9 82 0.0 0.0 0.30 0.05 0.05 89 1015.9
20260504222541 10 73 0.0 1.6 0.30 0.05 0.05 84 1016.5
20260504222038 10 82 0.0 1.6 0.00 0.00 0.00 78 1016.6
20260504221535 12 241 4.8 8.0 0.00 0.00 0.00 61 1016.6
20260504221032 12 255 3.2 4.8 0.00 0.00 0.00 47 1016.4
20260504220529 13 94 0.0 0.0 0.00 0.00 0.00 46 1015.9
20260504220026 13 56 0.0 1.6 0.00 0.00 0.00 46 1015.4
20260504215522 13 344 6.4 9.7 0.00 0.00 0.00 46 1015.2
20260504215020 13 40 1.6 4.8 0.00 0.00 0.00 46 1014.7
20260504214515 13 34 1.6 3.2 0.00 0.00 0.00 47 1014.7
20260504214012 13 33 4.8 14.5 0.00 0.00 0.00 46 1014.9
20260504213508 13 76 8.0 12.9 0.00 0.00 0.00 45 1014.8
20260504213006 13 50 4.8 20.9 0.00 0.00 0.00 44 1014.9
20260504212501 13 77 1.6 8.0 0.00 0.00 0.00 42 1015.0
20260504211959 13 353 9.7 17.7 0.00 0.00 0.00 41 1015.0
20260504211455 13 5 3.2 16.1 0.00 0.00 0.00 41 1015.0
20260504210953 13 99 6.4 16.1 0.00 0.00 0.00 41 1014.9
20260504210450 14 1 14.5 22.5 0.00 0.00 0.00 39 1015.0
20260504205947 15 40 4.8 16.1 0.00 0.00 0.00 37 1015.2
20260504205444 16 345 8.0 17.7 0.00 0.00 0.00 36 1014.8
20260504204942 17 4 14.5 22.5 0.00 0.00 0.00 32 1014.7
20260504204440 20 325 8.0 12.9 0.00 0.00 0.00 27 1014.6
20260504203939 20 109 0.0 4.8 0.00 0.00 0.00 28 1014.3
20260504203436 18 5 4.8 4.8 0.00 0.00 0.00 30 1014.2
20260504202932 17 1 1.6 12.9 0.00 0.00 0.00 32 1014.3
20260504202429 17 226 8.0 20.9 0.00 0.00 0.00 32 1014.4
20260504201926 17 170 3.2 11.3 0.00 0.00 0.00 31 1014.1
20260504201423 17 207 9.7 16.1 0.00 0.00 0.00 32 1014.7
20260504200921 16 214 6.4 9.7 0.00 0.00 0.00 32 1014.6
20260504200417 16 248 4.8 14.5 0.00 0.00 0.00 32 1014.8
20260504195914 16 269 4.8 9.7 0.00 0.00 0.00 34 1014.9
20260504195409 16 258 3.2 24.1 0.00 0.00 0.00 35 1014.9
20260504194906 17 86 3.2 14.5 0.00 0.00 0.00 35 1014.8
20260504194402 16 191 8.0 11.3 0.00 0.00 0.00 35 1014.7
20260504193858 16 259 8.0 17.7 0.00 0.00 0.00 35 1014.8
20260504193355 16 206 8.0 24.1 0.00 0.00 0.00 34 1014.7
20260504192854 17 237 8.0 12.9 0.00 0.00 0.00 30 1014.7
20260504192352 17 226 8.0 14.5 0.00 0.00 0.00 27 1014.8
20260504191850 17 207 4.8 14.5 0.00 0.00 0.00 27 1014.6
20260504191348 18 208 4.8 12.9 0.00 0.00 0.00 28 1014.7
20260504190843 17 202 1.6 4.8 0.00 0.00 0.00 28 1014.2
20260504190339 18 180 3.2 11.3 0.00 0.00 0.00 28 1014.7
20260504185836 17 37 1.6 1.6 0.00 0.00 0.00 30 1014.8
20260504185333 17 65 0.0 1.6 0.00 0.00 0.00 29 1014.8
20260504184829 17 117 0.0 1.6 0.00 0.00 0.00 30 1014.8
20260504184325 17 294 3.2 8.0 0.00 0.00 0.00 30 1014.8
20260504183820 18 84 0.0 3.2 0.00 0.00 0.00 29 1014.9
20260504183318 18 223 4.8 8.0 0.00 0.00 0.00 29 1014.9
20260504182816 18 200 1.6 8.0 0.00 0.00 0.00 29 1015.0
20260504182313 18 306 4.8 8.0 0.00 0.00 0.00 29 1015.2
20260504181810 18 63 1.6 4.8 0.00 0.00 0.00 30 1015.3
20260504181307 18 189 4.8 12.9 0.00 0.00 0.00 29 1015.5
20260504180806 17 164 1.6 11.3 0.00 0.00 0.00 31 1015.6
20260504180304 17 84 1.6 1.6 0.00 0.00 0.00 30 1015.5
20260504175802 17 46 0.0 1.6 0.00 0.00 0.00 33 1015.8
20260504175258 16 43 3.2 4.8 0.00 0.00 0.00 32 1015.8
20260504174757 16 52 1.6 4.8 0.00 0.00 0.00 31 1016.0
20260504174254 16 244 1.6 4.8 0.00 0.00 0.00 32 1016.1
20260504173750 16 36 0.0 8.0 0.00 0.00 0.00 33 1016.1
20260504173248 16 67 1.6 3.2 0.00 0.00 0.00 34 1016.4
20260504172744 15 157 1.6 3.2 0.00 0.00 0.00 34 1016.4
20260504172241 15 262 3.2 8.0 0.00 0.00 0.00 34 1016.3
20260504171737 15 34 0.0 8.0 0.00 0.00 0.00 34 1016.4
20260504171234 15 287 0.0 1.6 0.00 0.00 0.00 34 1016.5
20260504170731 15 58 0.0 3.2 0.00 0.00 0.00 34 1016.3
20260504170229 15 294 3.2 4.8 0.00 0.00 0.00 35 1016.5
20260504160147 13 213 3.2 3.2 0.00 0.00 0.00 37 1016.5
20260504151114 13 85 0.0 3.2 0.00 0.00 0.00 35 1016.6
20260504150612 13 33 0.0 4.8 0.00 0.00 0.00 35 1016.5
20260504150109 13 222 3.2 11.3 0.00 0.00 0.00 35 1016.4
20260504141037 13 255 3.2 9.7 0.00 0.00 0.00 34 1016.7
20260504140534 13 220 8.0 12.9 0.00 0.00 0.00 33 1016.5
20260504130458 10 42 0.0 0.0 0.00 0.00 0.00 37 1016.3
20260504110345 9 110 1.6 3.2 0.00 0.00 0.00 33 1015.8
20260504100303 9 302 4.8 8.0 0.00 0.00 0.00 35 1016.1
20260504081656 7 264 1.6 4.8 0.00 0.00 0.00 39 1017.0
20260504081152 6 207 3.2 4.8 0.00 0.00 0.00 42 1017.1
20260504080649 6 239 3.2 4.8 0.00 0.00 0.00 45 1016.9
20260504080145 6 222 3.2 4.8 0.00 0.00 0.00 43 1017.1
20260504070114 5 235 1.6 1.6 0.00 0.00 0.00 48 1017.7
20260504050502 10 323 1.6 3.2 0.00 0.00 0.00 38 1018.0
20260504045959 10 75 0.0 1.6 0.00 0.00 0.00 38 1018.2
20260504045455 10 245 3.2 3.2 0.00 0.00 0.00 38 1018.1
20260504044951 10 222 1.6 4.8 0.00 0.00 0.00 40 1018.3
20260504044449 9 212 3.2 8.0 0.00 0.00 0.00 41 1018.3
20260504043946 10 237 1.6 3.2 0.00 0.00 0.00 42 1018.3
20260504043443 10 260 3.2 4.8 0.00 0.00 0.00 39 1018.3
20260504042940 11 270 1.6 3.2 0.00 0.00 0.00 38 1018.7
20260504042436 10 145 1.6 3.2 0.00 0.00 0.00 38 1018.3
20260504041933 11 169 1.6 1.6 0.00 0.00 0.00 39 1018.4
20260504041429 11 221 1.6 4.8 0.00 0.00 0.00 39 1018.3
20260504040925 11 230 3.2 4.8 0.00 0.00 0.00 38 1018.7
20260504040424 11 10 3.2 3.2 0.00 0.00 0.00 37 1018.6
20260504035919 12 280 3.2 8.0 0.00 0.00 0.00 37 1018.6
20260504035417 11 248 3.2 3.2 0.00 0.00 0.00 38 1018.6
20260504034913 12 317 1.6 3.2 0.00 0.00 0.00 37 1018.8
20260504034411 12 233 1.6 3.2 0.00 0.00 0.00 36 1018.6
20260504033908 12 105 0.0 3.2 0.00 0.00 0.00 37 1018.8
20260504033406 12 246 3.2 3.2 0.00 0.00 0.00 37 1018.7
20260504032902 12 236 1.6 3.2 0.00 0.00 0.00 37 1018.7
20260504032359 12 320 0.0 3.2 0.00 0.00 0.00 36 1018.8
20260504031855 12 136 1.6 1.6 0.00 0.00 0.00 36 1018.7
20260504031353 13 297 3.2 3.2 0.00 0.00 0.00 35 1018.8
20260504030849 13 214 3.2 3.2 0.00 0.00 0.00 35 1018.8
20260504030347 13 250 1.6 4.8 0.00 0.00 0.00 35 1018.6
20260504025843 13 268 1.6 3.2 0.00 0.00 0.00 34 1018.7
20260504025340 13 141 3.2 8.0 0.00 0.00 0.00 34 1018.4
20260504024836 13 57 1.6 3.2 0.00 0.00 0.00 34 1018.7
20260504024333 14 315 1.6 1.6 0.00 0.00 0.00 33 1018.4
20260504023830 14 259 1.6 8.0 0.00 0.00 0.00 32 1018.3
20260504023327 15 159 1.6 3.2 0.00 0.00 0.00 32 1018.2
20260504022822 14 219 0.0 8.0 0.00 0.00 0.00 32 1018.4
20260504022319 13 341 1.6 3.2 0.00 0.00 0.00 33 1018.4
20260504021816 13 170 1.6 3.2 0.00 0.00 0.00 33 1018.6
20260504021314 14 61 0.0 4.8 0.00 0.00 0.00 32 1018.1
20260504020810 14 68 0.0 1.6 0.00 0.00 0.00 32 1018.3
20260504020307 15 125 1.6 4.8 0.00 0.00 0.00 32 1018.2
20260504015803 15 70 0.0 1.6 0.00 0.00 0.00 32 1018.1
20260504015259 15 216 0.0 1.6 0.00 0.00 0.00 31 1018.2
20260504014755 15 225 3.2 4.8 0.00 0.00 0.00 31 1018.0
20260504014251 15 154 1.6 1.6 0.00 0.00 0.00 30 1017.8
20260504013749 15 134 1.6 12.9 0.00 0.00 0.00 29 1018.0
20260504013247 16 185 1.6 4.8 0.00 0.00 0.00 29 1017.8
20260504012743 16 236 1.6 3.2 0.00 0.00 0.00 30 1018.1
20260504012241 16 63 0.0 1.6 0.00 0.00 0.00 30 1018.1
20260504011738 16 51 0.0 1.6 0.00 0.00 0.00 28 1018.0
20260504011235 16 324 0.0 1.6 0.00 0.00 0.00 28 1017.8
20260504010731 16 122 1.6 1.6 0.00 0.00 0.00 28 1018.0
20260504010226 16 327 0.0 3.2 0.00 0.00 0.00 27 1018.1
20260504005723 16 244 3.2 4.8 0.00 0.00 0.00 27 1018.0
20260504005220 16 224 1.6 1.6 0.00 0.00 0.00 29 1018.1
20260504004718 16 75 0.0 1.6 0.00 0.00 0.00 28 1018.2
20260504004215 16 63 0.0 1.6 0.00 0.00 0.00 29 1018.4
20260504003712 16 79 0.0 8.0 0.00 0.00 0.00 29 1018.6
20260504003208 16 211 1.6 8.0 0.00 0.00 0.00 29 1018.7
20260504002705 16 264 4.8 9.7 0.00 0.00 0.00 29 1019.1